Back to catalog

COSMOS 1275 DEB

AlivePO
NORAD 42215·DEBRIS·🇷🇺 Russia

Launched Jun 4, 1981 from Plesetsk Cosmodrome

Loading…

Next Passes (next 24 hours)

TLE

StaleSource: Space-Track

Epoch: Aug 28, 2026, 08:35 UTC

1 42215U 81053UF  26240.35808530  .00000200  00000-0  17250-3 0  9997
2 42215  82.8957 279.8210 0105430 213.4635 145.9833 13.79409340640611

Track COSMOS 1275 DEB in real time with AllMySat

Download on the App Store